TimeEST,TemperatureF,Dew PointF,Humidity,Sea Level PressureIn,VisibilityMPH,Wind Direction,Wind SpeedMPH,Gust SpeedMPH,PrecipitationIn,Events,Conditions,WindDirDegrees,DateUTC
12:53 AM,68.0,64.9,90,29.97,10.0,ESE,6.9,-,N/A,,Clear,110,2012-12-08 05:53:00
1:53 AM,66.9,66.0,97,29.96,10.0,East,8.1,-,N/A,,Clear,100,2012-12-08 06:53:00
2:53 AM,66.9,66.0,97,29.96,10.0,East,9.2,-,N/A,,Clear,100,2012-12-08 07:53:00
3:01 AM,66.9,66.0,97,29.96,9.0,East,9.2,-,N/A,,Scattered Clouds,100,2012-12-08 08:01:00
3:22 AM,66.9,66.9,100,29.96,8.0,East,6.9,-,N/A,,Mostly Cloudy,100,2012-12-08 08:22:00
3:53 AM,66.0,66.0,100,29.96,6.0,ESE,8.1,-,N/A,,Overcast,110,2012-12-08 08:53:00
4:04 AM,66.0,66.0,100,29.96,1.8,ESE,8.1,-,N/A,,Overcast,110,2012-12-08 09:04:00
4:18 AM,64.9,64.9,100,29.97,0.8,ESE,8.1,-,N/A,,Mist,110,2012-12-08 09:18:00
4:53 AM,64.9,64.9,100,29.97,0.5,ESE,9.2,-,N/A,Fog,Fog,110,2012-12-08 09:53:00
5:37 AM,64.9,64.9,100,29.98,1.0,ESE,8.1,-,N/A,,Mist,110,2012-12-08 10:37:00
6:04 AM,66.0,66.0,100,29.98,1.0,ESE,8.1,-,N/A,,Mist,120,2012-12-08 11:04:00
6:25 AM,66.0,66.0,100,29.98,3.0,SE,6.9,-,N/A,,Overcast,130,2012-12-08 11:25:00
6:53 AM,66.0,66.0,100,30.00,9.0,SE,8.1,-,N/A,,Overcast,140,2012-12-08 11:53:00
7:11 AM,66.0,66.0,100,30.00,10.0,SE,8.1,-,N/A,,Overcast,140,2012-12-08 12:11:00
7:53 AM,66.0,66.0,100,30.01,10.0,SE,8.1,-,N/A,,Overcast,130,2012-12-08 12:53:00
8:16 AM,66.9,66.9,100,30.02,10.0,SE,9.2,-,N/A,,Overcast,130,2012-12-08 13:16:00
8:53 AM,68.0,66.9,96,30.03,10.0,North,-9999.0,-,N/A,,Overcast,0,2012-12-08 13:53:00
9:53 AM,68.0,66.9,96,30.04,10.0,SSE,6.9,-,N/A,,Mostly Cloudy,160,2012-12-08 14:53:00
10:26 AM,68.0,66.0,93,30.05,10.0,North,-9999.0,-,N/A,,Overcast,0,2012-12-08 15:26:00
10:53 AM,71.1,66.9,87,30.04,10.0,North,-9999.0,-,N/A,,Overcast,0,2012-12-08 15:53:00
11:11 AM,71.1,66.9,87,30.03,10.0,North,-9999.0,-,N/A,,Scattered Clouds,0,2012-12-08 16:11:00
11:53 AM,72.0,68.0,87,30.02,10.0,North,-9999.0,-,N/A,,Clear,0,2012-12-08 16:53:00
12:53 PM,75.0,68.0,79,29.99,10.0,NE,3.5,-,N/A,,Clear,50,2012-12-08 17:53:00
1:53 PM,75.0,66.9,76,29.98,10.0,SSE,4.6,-,N/A,,Clear,160,2012-12-08 18:53:00
2:53 PM,75.9,66.0,71,29.97,10.0,WNW,5.8,-,N/A,,Clear,290,2012-12-08 19:53:00
3:53 PM,77.0,64.9,66,29.97,10.0,North,-9999.0,-,N/A,,Partly Cloudy,0,2012-12-08 20:53:00
4:53 PM,75.9,64.9,69,29.97,10.0,North,-9999.0,-,N/A,,Clear,0,2012-12-08 21:53:00
5:53 PM,73.9,66.0,76,29.98,10.0,NW,3.5,-,N/A,,Clear,310,2012-12-08 22:53:00
6:53 PM,73.0,66.0,79,30.00,10.0,NNW,4.6,-,N/A,,Mostly Cloudy,330,2012-12-08 23:53:00
7:53 PM,72.0,66.9,84,30.02,10.0,North,5.8,-,N/A,,Scattered Clouds,360,2012-12-09 00:53:00
8:53 PM,71.1,66.0,84,30.03,10.0,North,4.6,-,N/A,,Clear,350,2012-12-09 01:53:00
9:53 PM,70.0,66.9,90,30.05,10.0,ENE,5.8,-,N/A,,Mostly Cloudy,70,2012-12-09 02:53:00
10:53 PM,70.0,68.0,93,30.05,10.0,East,9.2,-,N/A,,Mostly Cloudy,80,2012-12-09 03:53:00
11:53 PM,70.0,68.0,93,30.03,10.0,ENE,3.5,-,N/A,,Mostly Cloudy,60,2012-12-09 04:53:00